[[{"header":{"parameterUnit":"m.s-1","parameterCategory":1,"la1":30.2991,"la2":30.254,"lo1":-89.0895,"lo2":-89.0444,"dy":0.0017,"dx":0.0017,"nx":28,"ny":28,"refTime":"2024-12-15T09:00:00:Z","depth":0,"parameterNumber":2,"parameterNumberName":"U-component_of_WINDS"},"data":[0,0,0,0,0,0,0,0,0,0,0,0,0,0,0,0,0,0,0,0,0,0,0,0,0,0,0,0,0,0,0,0,0,0,0,0,0,0,0,0,0,0,0,0,0,0,0,0,0,0,0,0,0,0,0,0,0,0,-4.3218,-4.3219,0,-4.3261,-4.3261,-4.3262,-4.3202,-4.32,-4.3198,-4.3196,-4.3238,-4.3241,-4.3244,0,0,0,0,0,0,0,0,0,0,0,0,0,-4.3086,-4.3089,-4.3218,-4.3219,-4.3219,-4.3261,-4.3261,-4.3262,-4.3202,-4.32,-4.3197,-4.3195,-4.3237,-4.3241,-4.3245,0,0,0,0,0,0,0,0,0,0,0,0,0,-4.3138,-4.309,-4.3218,-4.3195,-4.3193,-4.3261,-4.3261,-4.3262,-4.3203,-4.32,-4.3196,-4.3194,-4.3236,-4.3241,-4.3245,-4.3338,0,0,-4.3259,-4.3261,0,0,0,0,0,0,0,0,-4.3135,-4.3143,-4.3198,-4.3196,-4.3195,-4.3223,-4.323,-4.3287,-4.3204,-4.3199,-4.3196,-4.3192,-4.3236,-4.324,-4.3255,-4.334,-4.3341,-4.326,-4.3263,-4.3265,-4.3266,0,0,0,0,0,0,0,-4.3131,-4.314,-4.3235,-4.3198,-4.3197,-4.3182,-4.3186,-4.3241,-4.3235,-4.3199,-4.3195,-4.3201,-4.3234,-4.3251,-4.3256,-4.3342,-4.326,-4.3264,-4.3267,-4.3269,-4.3506,-4.351,0,0,0,0,0,0,-4.3131,-4.3138,-4.3234,-4.3236,-4.3156,-4.3187,-4.3191,-4.3217,-4.3234,-4.3233,-4.3204,-4.3198,-4.3244,-4.325,-4.3257,-4.3367,-4.3265,-4.3269,-4.3272,-4.3503,-4.3507,-4.3511,0,0,0,0,0,0,-4.3128,-4.314,-4.3232,-4.3186,-4.3197,-4.3193,-4.3222,-4.322,-4.3236,-4.3237,-4.3236,-4.3221,-4.3242,-4.325,-4.3318,-4.3368,-4.3271,-4.3275,-4.3499,-4.3504,-4.3509,-4.3587,0,0,0,0,0,0,-4.3124,-4.3139,-4.3174,-4.3187,-4.3199,-4.3293,-4.3225,-4.3223,-4.3244,-4.3237,-4.3254,-4.3253,-4.324,-4.3312,-4.3323,-4.3372,-4.3279,-4.3494,-4.3501,-4.3508,-4.358,-4.3595,-4.3607,0,0,0,0,0,-4.312,-4.3193,-4.3176,-4.3188,-4.3243,-4.3296,-4.3302,-4.3286,-4.3248,-4.3283,-4.3285,-4.3253,-4.3361,-4.3319,-4.3331,-4.3383,-4.3491,-4.3499,-4.3507,-4.3574,-4.3592,-4.3607,0,0,0,0,0,0,-4.3185,-4.3195,-4.3175,-4.3255,-4.3275,-4.3285,-4.3329,-4.3305,-4.3336,-4.3328,-4.3306,-4.331,-4.3384,-4.339,-4.3344,-4.3474,-4.342,-4.343,-4.3467,-4.3483,-4.3497,-4.3493,-4.3283,0,0,0,0,0,-4.3209,-4.3251,-4.3257,-4.3327,-4.3339,-4.3333,-4.3355,-4.3341,-4.336,-4.3368,-4.3374,-4.3395,-4.3433,-4.3459,-4.3494,-4.3582,-4.3585,-4.3623,-4.3637,-4.3648,-4.3657,-4.3705,-4.3722,-4.3537,-4.3537,-4.3537,0,0,-4.3258,-4.3268,-4.3296,-4.3341,-4.3354,-4.3399,-4.334,-4.3389,-4.3422,-4.3376,-4.344,-4.3446,-4.3467,-4.3546,-4.3581,-4.3554,-4.3709,-4.3658,-4.3666,-4.3669,-4.3715,-4.3732,-4.3748,-4.3542,-4.3542,-4.3541,0,0,-4.337,-4.3382,-4.3442,-4.3458,-4.348,-4.3476,-4.3491,-4.3506,-4.3508,-4.3573,-4.354,-4.3579,-4.3646,-4.3663,-4.368,-4.3802,-4.3774,-4.3815,-4.3883,-4.3931,-4.3945,-4.3958,-4.4002,-4.4018,-4.3824,-4.3824,-4.3824,0,-4.3427,-4.3493,-4.3476,-4.3529,-4.355,-4.3512,-4.3573,-4.3589,-4.3622,-4.3637,-4.3607,-4.3691,-4.3702,-4.3785,-4.3815,-4.3831,-4.3847,-4.3812,-4.3945,-4.3957,-4.3969,-4.4011,-4.4027,-4.3829,-4.3828,-4.3828,-4.3828,0,-4.3564,-4.361,-4.3657,-4.369,-4.3717,-4.3773,-4.3765,-4.3794,-4.3779,-4.3779,-4.3846,-4.386,-4.3898,-4.3917,-4.3901,-4.3998,-4.3981,-4.3948,-4.3893,-4.3992,-4.4031,-4.4046,-4.3836,-4.3834,-4.3833,-4.3831,0,0,-4.3715,-4.3741,-4.3758,-4.3774,-4.3797,-4.3832,-4.3888,-4.3927,-4.3952,-4.3977,-4.4023,-4.4082,-4.4053,-4.4073,-4.406,-4.4101,-4.4199,-4.4064,-4.4064,-4.4088,-4.4307,-4.4331,-4.4349,-4.4181,-4.4184,-4.4186,-4.4305,0,-4.3827,-4.3923,-4.3911,-4.4003,-4.4047,-4.4013,-4.4062,-4.4082,-4.4084,-4.4121,-4.4123,-4.4165,-4.4123,-4.4135,-4.4175,-4.4178,-4.4242,-4.417,-4.4224,-4.4226,-4.4219,-4.437,-4.4395,-4.4506,-4.432,-4.4323,-4.4324,0,-4.3969,-4.4001,-4.4098,-4.4117,-4.4134,-4.4178,-4.4214,-4.425,-4.4273,-4.4271,-4.4295,-4.4276,-4.4332,-4.4278,-4.4356,-4.4307,-4.4329,-4.4335,-4.4339,-4.4342,-4.4281,-4.4377,-4.4541,-4.4557,-4.4348,-4.4346,-4.4345,0,-4.407,-4.4137,-4.4204,-4.4218,-4.4241,-4.4274,-4.4285,-4.4304,-4.4329,-4.436,-4.4376,-4.4414,-4.4434,-4.4464,-4.4455,-4.4416,-4.4536,-4.448,-4.4537,-4.4537,-4.4562,-4.456,-4.4731,-4.4578,-4.4577,-4.4577,-4.4577,0,-4.4195,-4.4256,-4.4249,-4.429,-4.4358,-4.4345,-4.4412,-4.4419,-4.4438,-4.448,-4.4454,-4.4494,-4.4481,-4.4521,-4.4515,-4.4582,-4.4591,-4.4592,-4.4589,-4.4594,-4.4594,-4.4607,-4.4599,-4.4582,-4.4581,-4.458,-4.4579,0,-4.4318,-4.4316,-4.4387,-4.4404,-4.441,-4.446,-4.4475,-4.4514,-4.4515,-4.4569,-4.4581,-4.4583,-4.4629,-4.4625,-4.4676,-4.4672,-4.4755,-4.4743,-4.4747,-4.4744,-4.4801,-4.4796,-4.4985,-4.501,-4.4841,-4.4843,-4.4844,0,-4.4397,-4.4444,-4.4467,-4.4494,-4.4508,-4.4552,-4.4577,-4.4567,-4.4594,-4.4626,-4.4662,-4.4706,-4.474,-4.4816,-4.4822,-4.4862,-4.4851,-4.4915,-4.4856,-4.486,-4.4852,-4.4849,-4.4854,-4.4926,-4.4928,-4.4929,-4.493,0,-4.4539,-4.4537,-4.4575,-4.4614,-4.4645,-4.4675,-4.4702,-4.4726,-4.4718,-4.4751,-4.4798,-4.4826,-4.488,-4.4924,-4.4962,-4.4974,-4.4952,-4.4949,-4.4964,-4.4969,-4.4969,-4.497,-4.4778,-4.4944,-4.4943,-4.4942,-4.4941,-4.4941,-4.4642,-4.4682,-4.4706,-4.475,-4.477,-4.4797,-4.4835,-4.4842,-4.4881,-4.4925,-4.4917,-4.497,-4.4994,-4.5044,-4.506,-4.5103,-4.5079,-4.5101,-4.5107,-4.5112,-4.5119,-4.4964,-4.511,-4.5109,-4.5109,-4.5108,-4.5108,0,-4.4782,-4.4797,-4.4837,-4.4877,-4.4912,-4.489,-4.4919,-4.495,-4.4998,-4.5023,-4.5058,-4.5114,-4.5158,-4.5169,-4.5211,-4.5243,-4.5234,-4.5254,-4.5251,-4.5255,-4.5137,-4.512,-4.5261,-4.5261,-4.5261,-4.5261,-4.5261,-4.5261,-4.4859,-4.4926,-4.4927,-4.5005,-4.5019,-4.5072,-4.5091,-4.5116,-4.5136,-4.52,-4.5236,-4.5244,-4.5263,-4.5307,-4.5347,-4.5349,-4.5366,-4.5391,-4.5389,-4.5278,-4.5263,-4.5248,-4.5232,-4.5395,-4.5395,-4.5503,-4.5504,-4.5505]},{"header":{"parameterUnit":"m.s-1","parameterCategory":1,"la1":30.2991,"la2":30.254,"lo1":-89.0895,"lo2":-89.0444,"dy":0.0017,"dx":0.0017,"nx":28,"ny":28,"refTime":"2024-12-15T09:00:00:Z","depth":0,"parameterNumber":3,"parameterNumberName":"V-component_of_WINDS"},"data":[0,0,0,0,0,0,0,0,0,0,0,0,0,0,0,0,0,0,0,0,0,0,0,0,0,0,0,0,0,0,0,0,0,0,0,0,0,0,0,0,0,0,0,0,0,0,0,0,0,0,0,0,0,0,0,0,0,0,-0.1501,-0.1501,0,-0.155,-0.155,-0.1551,-0.1552,-0.1551,-0.1551,-0.155,-0.16,-0.1602,-0.1604,0,0,0,0,0,0,0,0,0,0,0,0,0,-0.1406,-0.1407,-0.15,-0.1501,-0.1502,-0.155,-0.155,-0.1551,-0.1552,-0.1551,-0.1551,-0.155,-0.1599,-0.1602,-0.1604,0,0,0,0,0,0,0,0,0,0,0,0,0,-0.145,-0.1408,-0.15,-0.1508,-0.1509,-0.1549,-0.155,-0.1551,-0.1552,-0.1551,-0.1551,-0.155,-0.1599,-0.1601,-0.1604,-0.164,0,0,-0.1613,-0.1614,0,0,0,0,0,0,0,0,-0.1447,-0.1453,-0.1506,-0.1508,-0.1509,-0.1544,-0.1535,-0.1581,-0.1553,-0.1536,-0.155,-0.1549,-0.1582,-0.1586,-0.1597,-0.1642,-0.1644,-0.1613,-0.1615,-0.1616,-0.1617,0,0,0,0,0,0,0,-0.1444,-0.1451,-0.152,-0.1507,-0.1509,-0.1508,-0.1514,-0.1544,-0.1563,-0.1537,-0.1538,-0.1543,-0.1583,-0.1595,-0.1598,-0.1645,-0.1613,-0.1616,-0.1617,-0.1618,-0.1719,-0.172,0,0,0,0,0,0,-0.144,-0.1449,-0.1518,-0.1521,-0.1475,-0.1511,-0.1517,-0.1534,-0.1563,-0.1567,-0.1544,-0.1543,-0.159,-0.1595,-0.16,-0.1643,-0.1616,-0.1619,-0.162,-0.1718,-0.1719,-0.172,0,0,0,0,0,0,-0.1438,-0.1446,-0.1516,-0.1485,-0.1494,-0.1513,-0.1532,-0.1535,-0.1547,-0.1568,-0.1572,-0.1553,-0.159,-0.1596,-0.1629,-0.1644,-0.162,-0.1622,-0.1717,-0.1718,-0.172,-0.1728,0,0,0,0,0,0,-0.1435,-0.1445,-0.146,-0.1486,-0.1496,-0.1546,-0.1533,-0.1537,-0.1552,-0.1551,-0.1577,-0.1581,-0.1589,-0.1625,-0.1632,-0.1648,-0.1625,-0.1715,-0.1717,-0.1719,-0.1727,-0.173,-0.1732,0,0,0,0,0,-0.1432,-0.1461,-0.1461,-0.1469,-0.1514,-0.1546,-0.1552,-0.1562,-0.1553,-0.1567,-0.158,-0.158,-0.1641,-0.1629,-0.1637,-0.1653,-0.1715,-0.1717,-0.1719,-0.1725,-0.1729,-0.1732,0,0,0,0,0,0,-0.1437,-0.1464,-0.1465,-0.1503,-0.1522,-0.1547,-0.1565,-0.1566,-0.1588,-0.1587,-0.1597,-0.1603,-0.1635,-0.1648,-0.1633,-0.1688,-0.1677,-0.1681,-0.1679,-0.1683,-0.1686,-0.1682,-0.1627,0,0,0,0,0,-0.1442,-0.1467,-0.1489,-0.152,-0.153,-0.1546,-0.156,-0.1566,-0.1586,-0.1594,-0.161,-0.163,-0.1653,-0.1669,-0.1692,-0.1728,-0.1733,-0.1743,-0.1746,-0.1748,-0.1752,-0.177,-0.1774,-0.1727,-0.1727,-0.1727,0,0,-0.1454,-0.1472,-0.1487,-0.1522,-0.1538,-0.1562,-0.1553,-0.1579,-0.1597,-0.1598,-0.163,-0.1642,-0.1665,-0.1699,-0.1715,-0.171,-0.1765,-0.1751,-0.1753,-0.1755,-0.1773,-0.1777,-0.1781,-0.1729,-0.1728,-0.1728,0,0,-0.1488,-0.1504,-0.1531,-0.1547,-0.157,-0.158,-0.1586,-0.161,-0.1618,-0.1651,-0.1652,-0.1672,-0.1713,-0.1729,-0.1742,-0.1778,-0.1778,-0.1785,-0.1801,-0.1818,-0.1822,-0.1825,-0.1838,-0.1842,-0.1789,-0.1789,-0.1789,0,-0.1499,-0.1536,-0.1545,-0.1571,-0.1586,-0.1587,-0.1614,-0.1629,-0.1659,-0.1668,-0.1662,-0.1712,-0.1728,-0.1765,-0.1773,-0.1784,-0.1791,-0.1783,-0.1821,-0.1824,-0.1828,-0.1839,-0.1844,-0.1789,-0.1789,-0.1789,-0.1789,0,-0.1549,-0.1574,-0.1593,-0.1621,-0.1638,-0.1664,-0.1676,-0.1692,-0.1695,-0.1705,-0.1737,-0.1755,-0.1781,-0.179,-0.1794,-0.1827,-0.1823,-0.1819,-0.1808,-0.1833,-0.1844,-0.1848,-0.179,-0.179,-0.179,-0.179,0,0,-0.1588,-0.162,-0.1626,-0.1638,-0.1663,-0.1683,-0.1708,-0.1733,-0.1746,-0.1766,-0.1787,-0.182,-0.1816,-0.183,-0.1836,-0.1851,-0.1877,-0.1845,-0.1846,-0.185,-0.1914,-0.1917,-0.1922,-0.1877,-0.1878,-0.1879,-0.1912,0,-0.1624,-0.167,-0.1678,-0.1718,-0.174,-0.1741,-0.1763,-0.178,-0.1789,-0.1809,-0.1819,-0.1842,-0.1835,-0.1844,-0.186,-0.1871,-0.189,-0.1869,-0.1896,-0.1897,-0.189,-0.1928,-0.1932,-0.1962,-0.1916,-0.1917,-0.1918,0,-0.1673,-0.1693,-0.1735,-0.1755,-0.1765,-0.1785,-0.1807,-0.1826,-0.1845,-0.185,-0.1866,-0.1869,-0.1894,-0.1881,-0.1915,-0.19,-0.1912,-0.1919,-0.192,-0.1923,-0.1909,-0.1931,-0.1972,-0.1976,-0.1925,-0.1924,-0.1924,0,-0.1697,-0.1734,-0.1764,-0.1774,-0.1799,-0.1812,-0.1823,-0.1841,-0.1855,-0.1874,-0.1883,-0.1904,-0.1917,-0.1933,-0.1941,-0.1931,-0.1974,-0.1962,-0.1979,-0.1978,-0.1988,-0.1987,-0.203,-0.1995,-0.1995,-0.1995,-0.1995,0,-0.1736,-0.1761,-0.1775,-0.1793,-0.1821,-0.1828,-0.1855,-0.1866,-0.1881,-0.19,-0.1902,-0.192,-0.193,-0.1949,-0.1955,-0.1982,-0.1987,-0.1992,-0.1993,-0.1992,-0.1991,-0.1999,-0.1997,-0.1997,-0.1996,-0.1996,-0.1996,0,-0.1768,-0.1778,-0.181,-0.183,-0.1835,-0.1855,-0.1871,-0.1888,-0.1897,-0.1921,-0.1927,-0.194,-0.1963,-0.1972,-0.2,-0.2004,-0.2034,-0.2034,-0.2027,-0.2028,-0.2043,-0.2041,-0.2093,-0.21,-0.2061,-0.2061,-0.2061,0,-0.1792,-0.1812,-0.1833,-0.1846,-0.1857,-0.1878,-0.1892,-0.1899,-0.1913,-0.1935,-0.1949,-0.1971,-0.1989,-0.2024,-0.2036,-0.2056,-0.2057,-0.2073,-0.206,-0.2057,-0.2056,-0.2055,-0.2056,-0.2076,-0.2076,-0.2077,-0.2077,0,-0.1834,-0.1838,-0.1858,-0.1878,-0.1895,-0.1912,-0.1928,-0.1938,-0.1948,-0.1964,-0.1986,-0.2,-0.2028,-0.2049,-0.207,-0.208,-0.208,-0.2081,-0.2085,-0.2084,-0.2079,-0.2081,-0.2034,-0.208,-0.2079,-0.2079,-0.2079,-0.2079,-0.1863,-0.1879,-0.1896,-0.1918,-0.1931,-0.1945,-0.1962,-0.1972,-0.1991,-0.2014,-0.2017,-0.204,-0.2056,-0.2084,-0.2095,-0.2113,-0.2109,-0.2116,-0.2117,-0.2119,-0.2119,-0.2076,-0.2117,-0.2117,-0.2117,-0.2116,-0.2116,0,-0.1904,-0.1915,-0.1934,-0.1957,-0.1973,-0.1971,-0.1988,-0.2002,-0.2023,-0.2038,-0.2055,-0.208,-0.21,-0.2113,-0.2133,-0.2145,-0.2145,-0.215,-0.2149,-0.2151,-0.2123,-0.2116,-0.2149,-0.2149,-0.2149,-0.2149,-0.2149,-0.2149,-0.1928,-0.1955,-0.196,-0.1993,-0.2003,-0.2027,-0.2037,-0.205,-0.2062,-0.2089,-0.2106,-0.2114,-0.2127,-0.2148,-0.2166,-0.2169,-0.2176,-0.2181,-0.2184,-0.2157,-0.2153,-0.215,-0.2144,-0.2183,-0.2183,-0.2211,-0.2211,-0.2211]}]]